This is the latest recevied weather packets stored in our database for station/object WB4ZUT. If no packets are shown the sender has not sent any weather packets the latest 10 day(s).
| Time | Temp. | Humidity | Pressure | Rain* | Wind** | Luminosity | Snow |
|---|---|---|---|---|---|---|---|
| 1777823473 | 15.56° C | 52% | 1020.4 hPa | 0 mm | - | 806 W/m² | - |
| 1777823170 | 15.56° C | 53% | 1020.3 hPa | 0 mm | - | 770 W/m² | - |
| 1777822867 | 15.56° C | 54% | 1020.3 hPa | 0 mm | - | 756 W/m² | - |
| 1777822565 | 15.56° C | 57% | 1020.4 hPa | 0 mm | - | 757 W/m² | - |
| 1777822262 | 15.56° C | 57% | 1020.5 hPa | 0 mm | - | 766 W/m² | - |
| 1777821960 | 15° C | 56% | 1020.5 hPa | 0 mm | - | 734 W/m² | - |
| 1777821658 | 15° C | 55% | 1020.5 hPa | 0 mm | - | 714 W/m² | - |
| 1777821355 | 15.56° C | 56% | 1020.5 hPa | 0 mm | - | 713 W/m² | - |
| 1777821052 | 15° C | 58% | 1020.5 hPa | 0 mm | - | 698 W/m² | - |
| 1777820748 | 15° C | 58% | 1020.7 hPa | 0 mm | - | 691 W/m² | - |
| 1777820445 | 15° C | 60% | 1020.6 hPa | 0 mm | - | 665 W/m² | - |
| 1777820142 | 14.44° C | 62% | 1020.7 hPa | 0 mm | - | 638 W/m² | - |
| 1777819839 | 15° C | 60% | 1020.7 hPa | 0 mm | - | 624 W/m² | - |
| 1777819537 | 14.44° C | 62% | 1020.6 hPa | 0 mm | - | 622 W/m² | - |
| 1777819234 | 13.89° C | 63% | 1020.6 hPa | 0 mm | - | 573 W/m² | - |
| 1777818931 | 13.89° C | 62% | 1020.8 hPa | 0 mm | - | 538 W/m² | - |
| 1777818627 | 13.89° C | 64% | 1020.6 hPa | 0 mm | - | 534 W/m² | - |
| 1777818325 | 13.33° C | 63% | 1020.4 hPa | 0 mm | - | 531 W/m² | - |
| 1777818021 | 13.33° C | 64% | 1020.6 hPa | 0 mm | - | 517 W/m² | - |
| 1777817718 | 13.33° C | 64% | 1020.7 hPa | 0 mm | - | 459 W/m² | - |
| 1777817415 | 13.33° C | 64% | 1020.7 hPa | 0 mm | - | 443 W/m² | - |
| 1777817111 | 13.33° C | 65% | 1020.5 hPa | 0 mm | - | 379 W/m² | - |
| 1777816809 | 12.78° C | 68% | 1020.7 hPa | 0 mm | - | 383 W/m² | - |
| 1777816506 | 12.78° C | 68% | 1020.8 hPa | 0 mm | - | 362 W/m² | - |
| 1777816203 | 12.78° C | 69% | 1020.9 hPa | 0 mm | - | 359 W/m² | - |
* Rain latest hour (hover to see other rain measurements)
** Current wind speed in m/s (hover to see current wind gust speed)